AAL2147 KMIA-KMCO

Flight info

Callsign AAL2147
Flight time 0h 37m
Altitude 22000
Route FLMGO2 WAPOM MUNGI1
Aircraft B38M/M-SDE1FGHILORVWXY/HB1

Departure

Time 2026-04-24 23:37
Airport Miami International Airport (KMIA)

Arrival

Time 2026-04-25 00:14
Airport Orlando International Airport (KMCO)
Time Latitude Longitude Altitude Speed Heading
2026-04-24 22:50 25.79725 -80.28405 17 ft 0 kts 338°
2026-04-24 23:17 25.79705 -80.28396 17 ft 4 kts 338°
2026-04-24 23:17 25.79686 -80.28386 17 ft 4 kts 327°
2026-04-24 23:17 25.79672 -80.28367 19 ft 4 kts 271°
2026-04-24 23:18 25.79673 -80.28341 19 ft 3 kts 267°
2026-04-24 23:18 25.79674 -80.28336 19 ft 1 kts 267°
2026-04-24 23:29 25.79673 -80.28337 17 ft 1 kts 267°
2026-04-24 23:29 25.79673 -80.28378 17 ft 11 kts 269°
2026-04-24 23:30 25.79666 -80.28502 17 ft 21 kts 261°
2026-04-24 23:30 25.79649 -80.28636 17 ft 13 kts 268°
2026-04-24 23:30 25.79640 -80.28735 17 ft 9 kts 264°
2026-04-24 23:30 25.79655 -80.28798 18 ft 9 kts 320°
2026-04-24 23:31 25.79715 -80.28816 18 ft 10 kts 356°
2026-04-24 23:31 25.79786 -80.28818 17 ft 11 kts 357°
2026-04-24 23:31 25.79863 -80.28823 18 ft 12 kts 356°
2026-04-24 23:31 25.79946 -80.28828 18 ft 12 kts 356°
2026-04-24 23:32 25.79995 -80.28832 20 ft 0 kts 344°
2026-04-24 23:32 25.80009 -80.28853 19 ft 7 kts 291°
2026-04-24 23:32 25.80011 -80.28927 18 ft 11 kts 267°
2026-04-24 23:32 25.80007 -80.29026 18 ft 15 kts 268°
2026-04-24 23:33 25.80002 -80.29150 19 ft 17 kts 266°
2026-04-24 23:33 25.79998 -80.29246 18 ft 19 kts 267°
2026-04-24 23:33 25.79989 -80.29468 17 ft 23 kts 267°
2026-04-24 23:33 25.79981 -80.29651 17 ft 24 kts 268°
2026-04-24 23:34 25.79975 -80.29812 16 ft 15 kts 267°
2026-04-24 23:34 25.79969 -80.29937 16 ft 17 kts 267°
2026-04-24 23:34 25.79968 -80.29961 16 ft 1 kts 266°
2026-04-24 23:34 25.79968 -80.29963 16 ft 0 kts 266°
2026-04-24 23:35 25.79967 -80.29970 16 ft 4 kts 266°
2026-04-24 23:35 25.79965 -80.30059 16 ft 16 kts 279°
2026-04-24 23:36 25.80040 -80.30132 17 ft 13 kts 358°
2026-04-24 23:36 25.80068 -80.30107 16 ft 12 kts 65°
2026-04-24 23:36 25.80090 -80.29692 16 ft 95 kts 87°
2026-04-24 23:36 25.80122 -80.28685 56 ft 158 kts 90°
2026-04-24 23:37 25.80222 -80.27371 630 ft 179 kts 84°
2026-04-24 23:37 25.80354 -80.25972 1473 ft 191 kts 87°
2026-04-24 23:37 25.80450 -80.22638 2745 ft 239 kts 89°
2026-04-24 23:38 25.80488 -80.20818 3988 ft 231 kts 89°
2026-04-24 23:38 25.80574 -80.18970 4720 ft 244 kts 79°
2026-04-24 23:38 25.81293 -80.17284 5301 ft 248 kts 45°
2026-04-24 23:38 25.82759 -80.16198 6049 ft 263 kts 19°
2026-04-24 23:39 25.84584 -80.15858 6783 ft 273 kts
2026-04-24 23:39 25.86504 -80.15813 6979 ft 277 kts
2026-04-24 23:39 25.88433 -80.15755 6992 ft 277 kts
2026-04-24 23:39 25.90303 -80.16044 7013 ft 274 kts 341°
2026-04-24 23:40 25.92113 -80.16682 7017 ft 275 kts 342°
2026-04-24 23:40 25.93945 -80.17315 7008 ft 275 kts 342°
2026-04-24 23:40 25.95786 -80.17955 7102 ft 278 kts 341°
2026-04-24 23:40 25.97620 -80.18593 8076 ft 274 kts 341°
2026-04-24 23:41 25.99299 -80.19558 9035 ft 278 kts 319°
2026-04-24 23:41 26.00756 -80.20994 10034 ft 282 kts 318°
2026-04-24 23:41 26.02271 -80.22461 10704 ft 297 kts 317°
2026-04-24 23:41 26.03877 -80.24036 11180 ft 317 kts 317°
2026-04-24 23:42 26.04991 -80.25133 11507 ft 329 kts 317°
2026-04-24 23:42 26.07311 -80.27429 12386 ft 341 kts 317°
2026-04-24 23:42 26.09090 -80.29194 13268 ft 344 kts 317°
2026-04-24 23:42 26.10889 -80.30981 14047 ft 349 kts 317°
2026-04-24 23:43 26.12101 -80.32185 14533 ft 351 kts 316°
2026-04-24 23:43 26.14531 -80.34601 15490 ft 355 kts 316°
2026-04-24 23:43 26.15790 -80.35854 15971 ft 358 kts 316°
2026-04-24 23:43 26.17636 -80.37690 16656 ft 362 kts 316°
2026-04-24 23:44 26.19522 -80.39568 17338 ft 365 kts 316°
2026-04-24 23:44 26.21430 -80.41468 18009 ft 369 kts 316°
2026-04-24 23:44 26.23527 -80.43149 18606 ft 375 kts 331°
2026-04-24 23:44 26.25850 -80.44398 19186 ft 378 kts 331°
2026-04-24 23:45 26.28230 -80.45691 19762 ft 381 kts 332°
2026-04-24 23:45 26.30634 -80.46981 20348 ft 384 kts 332°
2026-04-24 23:45 26.33063 -80.48277 20795 ft 390 kts 332°
2026-04-24 23:45 26.35500 -80.49574 20921 ft 389 kts 332°
2026-04-24 23:46 26.37939 -80.50872 20962 ft 388 kts 332°
2026-04-24 23:46 26.40385 -80.52174 20956 ft 388 kts 332°
2026-04-24 23:46 26.42793 -80.53456 20955 ft 388 kts 332°
2026-04-24 23:46 26.45246 -80.54761 20960 ft 391 kts 332°
2026-04-24 23:47 26.47743 -80.56090 20957 ft 405 kts 333°
2026-04-24 23:47 26.50453 -80.57112 20946 ft 415 kts 342°
2026-04-24 23:47 26.53243 -80.57988 20951 ft 417 kts 341°
2026-04-24 23:47 26.56006 -80.58864 20960 ft 418 kts 341°
2026-04-24 23:48 26.58802 -80.59752 20953 ft 418 kts 341°
2026-04-24 23:48 26.61599 -80.60640 20954 ft 418 kts 341°
2026-04-24 23:48 26.64404 -80.61532 20951 ft 418 kts 341°
2026-04-24 23:48 26.67202 -80.62422 20954 ft 418 kts 341°
2026-04-24 23:49 26.69999 -80.63311 20958 ft 418 kts 341°
2026-04-24 23:49 26.72799 -80.64203 20956 ft 418 kts 341°
2026-04-24 23:49 26.75567 -80.65084 20960 ft 418 kts 341°
2026-04-24 23:49 26.78373 -80.65978 20957 ft 417 kts 341°
2026-04-24 23:50 26.81166 -80.66868 20954 ft 417 kts 341°
2026-04-24 23:50 26.83971 -80.67763 20953 ft 417 kts 341°
2026-04-24 23:50 26.86754 -80.68651 20953 ft 417 kts 341°
2026-04-24 23:50 26.89545 -80.69542 20956 ft 417 kts 341°
2026-04-24 23:51 26.92274 -80.70522 20960 ft 416 kts 339°
2026-04-24 23:51 26.95012 -80.71571 20955 ft 416 kts 339°
2026-04-24 23:51 26.97751 -80.72607 20959 ft 416 kts 339°
2026-04-24 23:51 27.00493 -80.73641 20957 ft 415 kts 339°
2026-04-24 23:52 27.03242 -80.74676 20959 ft 415 kts 339°
2026-04-24 23:52 27.05957 -80.75698 20956 ft 415 kts 339°
2026-04-24 23:52 27.08696 -80.76730 20955 ft 415 kts 339°
2026-04-24 23:52 27.11436 -80.77764 20956 ft 415 kts 339°
2026-04-24 23:53 27.14179 -80.78798 20954 ft 415 kts 339°
2026-04-24 23:53 27.16922 -80.79833 20953 ft 415 kts 339°
2026-04-24 23:53 27.19661 -80.80867 20953 ft 415 kts 339°
2026-04-24 23:53 27.22396 -80.81900 20953 ft 415 kts 339°
2026-04-24 23:54 27.25133 -80.82935 20954 ft 414 kts 339°
2026-04-24 23:54 27.27838 -80.83957 20953 ft 414 kts 339°
2026-04-24 23:54 27.30574 -80.84992 20953 ft 414 kts 339°
2026-04-24 23:54 27.33348 -80.85896 20957 ft 415 kts 343°
2026-04-24 23:55 27.36154 -80.86703 20958 ft 415 kts 343°
2026-04-24 23:55 27.38954 -80.87527 20954 ft 415 kts 343°
2026-04-24 23:55 27.41706 -80.88345 20953 ft 415 kts 343°
2026-04-24 23:55 27.44494 -80.89177 20955 ft 414 kts 343°
2026-04-24 23:56 27.47286 -80.90012 20957 ft 414 kts 343°
2026-04-24 23:56 27.50077 -80.90848 20957 ft 414 kts 343°
2026-04-24 23:56 27.52866 -80.91683 20959 ft 414 kts 343°
2026-04-24 23:56 27.55653 -80.92518 20957 ft 414 kts 343°
2026-04-24 23:57 27.58429 -80.93351 20959 ft 414 kts 343°
2026-04-24 23:57 27.61175 -80.94174 20962 ft 405 kts 342°
2026-04-24 23:57 27.63840 -80.94974 20983 ft 387 kts 342°
2026-04-24 23:57 27.66405 -80.95745 20908 ft 374 kts 342°
2026-04-24 23:58 27.68906 -80.96497 20515 ft 376 kts 342°
2026-04-24 23:58 27.71474 -80.97268 19976 ft 384 kts 343°
2026-04-24 23:58 27.74045 -80.98041 19486 ft 388 kts 343°
2026-04-24 23:58 27.76652 -80.98826 18983 ft 387 kts 343°
2026-04-24 23:59 27.79321 -80.99629 18474 ft 385 kts 343°
2026-04-24 23:59 27.81820 -81.00382 17946 ft 384 kts 343°
2026-04-24 23:59 27.84376 -81.01152 17412 ft 381 kts 343°
2026-04-24 23:59 27.86926 -81.01921 16908 ft 379 kts 343°
2026-04-25 00:00 27.89460 -81.02686 16446 ft 375 kts 343°
2026-04-25 00:00 27.91934 -81.03432 15984 ft 373 kts 343°
2026-04-25 00:00 27.94404 -81.04324 15467 ft 370 kts 337°
2026-04-25 00:00 27.96803 -81.05358 15021 ft 367 kts 338°
2026-04-25 00:01 27.99189 -81.06367 14584 ft 365 kts 338°
2026-04-25 00:01 28.01537 -81.07349 14153 ft 362 kts 338°
2026-04-25 00:01 28.03897 -81.08332 13704 ft 361 kts 338°
2026-04-25 00:01 28.06255 -81.09311 13205 ft 359 kts 338°
2026-04-25 00:02 28.08588 -81.10301 12740 ft 356 kts 337°
2026-04-25 00:02 28.10888 -81.11319 12287 ft 353 kts 337°
2026-04-25 00:02 28.13129 -81.12306 12003 ft 346 kts 337°
2026-04-25 00:02 28.15335 -81.13277 11849 ft 335 kts 338°
2026-04-25 00:03 28.17475 -81.14218 11686 ft 324 kts 337°
2026-04-25 00:03 28.19555 -81.15133 11518 ft 314 kts 337°
2026-04-25 00:03 28.21478 -81.15980 11383 ft 305 kts 337°
2026-04-25 00:03 28.23428 -81.16838 11251 ft 296 kts 337°
2026-04-25 00:04 28.25324 -81.17673 11095 ft 287 kts 337°
2026-04-25 00:04 28.27159 -81.18404 10893 ft 282 kts 347°
2026-04-25 00:04 28.29132 -81.18536 10559 ft 283 kts 357°
2026-04-25 00:04 28.31096 -81.18583 10244 ft 282 kts 356°
2026-04-25 00:05 28.33054 -81.18627 9922 ft 281 kts 356°
2026-04-25 00:05 28.35012 -81.18667 9542 ft 281 kts 356°
2026-04-25 00:05 28.36972 -81.18706 9180 ft 281 kts 357°
2026-04-25 00:05 28.38907 -81.18742 8827 ft 274 kts 357°
2026-04-25 00:06 28.40774 -81.18758 8483 ft 271 kts 357°
2026-04-25 00:06 28.42656 -81.18775 8132 ft 270 kts 357°
2026-04-25 00:06 28.44534 -81.18790 7799 ft 267 kts 356°
2026-04-25 00:06 28.46368 -81.18806 7479 ft 260 kts 356°
2026-04-25 00:07 28.48149 -81.18821 7178 ft 251 kts 356°
2026-04-25 00:07 28.49858 -81.18835 6882 ft 241 kts 356°
2026-04-25 00:07 28.51508 -81.18850 6582 ft 234 kts 356°
2026-04-25 00:07 28.53117 -81.18865 6305 ft 233 kts 356°
2026-04-25 00:08 28.54735 -81.18883 6000 ft 231 kts 356°
2026-04-25 00:08 28.56343 -81.18914 5705 ft 230 kts 356°
2026-04-25 00:08 28.57928 -81.18943 5415 ft 230 kts 356°
2026-04-25 00:08 28.59524 -81.18973 5118 ft 228 kts 356°
2026-04-25 00:09 28.61046 -81.19345 4794 ft 223 kts 328°
2026-04-25 00:09 28.62147 -81.20537 4471 ft 218 kts 298°
2026-04-25 00:09 28.62507 -81.22177 4142 ft 214 kts 268°
2026-04-25 00:09 28.62395 -81.23819 3862 ft 207 kts 263°
2026-04-25 00:10 28.62240 -81.25440 3548 ft 205 kts 261°
2026-04-25 00:10 28.61708 -81.26911 3206 ft 202 kts 229°
2026-04-25 00:10 28.60589 -81.27806 3006 ft 196 kts 201°
2026-04-25 00:10 28.59279 -81.28257 2992 ft 197 kts 188°
2026-04-25 00:11 28.57929 -81.28411 2827 ft 197 kts 179°
2026-04-25 00:11 28.56558 -81.28400 2524 ft 196 kts 176°
2026-04-25 00:11 28.55187 -81.28373 2236 ft 196 kts 176°
2026-04-25 00:11 28.53825 -81.28356 1944 ft 194 kts 176°
2026-04-25 00:12 28.52496 -81.28341 1687 ft 193 kts 176°
2026-04-25 00:12 28.51155 -81.28329 1418 ft 191 kts 176°
2026-04-25 00:12 28.49812 -81.28313 1172 ft 193 kts 176°
2026-04-25 00:12 28.48469 -81.28300 932 ft 194 kts 177°
2026-04-25 00:13 28.47158 -81.28289 690 ft 176 kts 176°
2026-04-25 00:13 28.46035 -81.28278 476 ft 150 kts 175°
2026-04-25 00:13 28.45059 -81.28262 299 ft 135 kts 175°
2026-04-25 00:13 28.44122 -81.28254 108 ft 128 kts 175°
2026-04-25 00:14 28.43397 -81.28246 98 ft 74 kts 180°
2026-04-25 00:14 28.43033 -81.28243 101 ft 43 kts 180°
2026-04-25 00:14 28.42736 -81.28242 101 ft 42 kts 182°
2026-04-25 00:14 28.42535 -81.28324 100 ft 27 kts 238°
2026-04-25 00:15 28.42469 -81.28533 99 ft 28 kts 252°
2026-04-25 00:15 28.42410 -81.28717 102 ft 23 kts 255°
2026-04-25 00:15 28.42366 -81.28861 106 ft 18 kts 251°
2026-04-25 00:15 28.42318 -81.29008 102 ft 22 kts 252°
2026-04-25 00:16 28.42285 -81.29204 98 ft 27 kts 269°
2026-04-25 00:16 28.42284 -81.29356 97 ft 16 kts 269°
2026-04-25 00:16 28.42280 -81.29492 97 ft 19 kts 263°
2026-04-25 00:16 28.42281 -81.29659 97 ft 20 kts 266°
2026-04-25 00:17 28.42292 -81.29776 97 ft 8 kts 289°
2026-04-25 00:17 28.42286 -81.29825 97 ft 7 kts 255°
2026-04-25 00:17 28.42280 -81.29886 97 ft 9 kts 267°
2026-04-25 00:17 28.42277 -81.29968 97 ft 12 kts 267°
2026-04-25 00:18 28.42278 -81.30070 97 ft 14 kts 271°
2026-04-25 00:18 28.42276 -81.30188 97 ft 16 kts 269°
2026-04-25 00:18 28.42275 -81.30325 97 ft 18 kts 267°
2026-04-25 00:18 28.42267 -81.30479 97 ft 21 kts 266°
2026-04-25 00:19 28.42255 -81.30645 101 ft 22 kts 265°
2026-04-25 00:19 28.42242 -81.30820 98 ft 12 kts 265°
2026-04-25 00:19 28.42235 -81.30926 99 ft 15 kts 265°
2026-04-25 00:19 28.42237 -81.31050 97 ft 17 kts 276°
2026-04-25 00:20 28.42257 -81.31183 99 ft 17 kts 280°
2026-04-25 00:20 28.42268 -81.31280 97 ft 12 kts 272°
2026-04-25 00:20 28.42268 -81.31386 98 ft 14 kts 269°
2026-04-25 00:20 28.42267 -81.31502 99 ft 15 kts 269°
2026-04-25 00:21 28.42263 -81.31630 100 ft 17 kts 267°
2026-04-25 00:21 28.42265 -81.31677 100 ft 2 kts 292°
2026-04-25 00:21 28.42268 -81.31680 101 ft 1 kts 325°
2026-04-25 00:21 28.42344 -81.31670 101 ft 21 kts 11°
2026-04-25 00:22 28.42466 -81.31625 102 ft 14 kts 28°
2026-04-25 00:22 28.42572 -81.31620 99 ft 20 kts 348°
2026-04-25 00:22 28.42728 -81.31659 99 ft 22 kts 347°
2026-04-25 00:22 28.42819 -81.31645 97 ft 13 kts 52°
2026-04-25 00:23 28.42823 -81.31620 98 ft 1 kts 89°
2026-04-25 00:23 28.42823 -81.31615 97 ft 0 kts 88°